Athens, OH

1:56 AM EDT on March 24, 2017 (GMT -0400)
Ohio University

Weather History for KUNI - February, 2014

Change the Weather History Date:

Tuesday, February 4, 2014

  Actual Average (KLHQ) Record (KLHQ)
Temperature  
Mean Temperature 20 °F -  
Max Temperature 31 °F 35 °F 59 °F (1991)
Min Temperature 10 °F 17 °F -15 °F (1985)
Degree Days  
Heating Degree Days 45    
Moisture  
Dew Point 19 °F    
Average Humidity 87    
Maximum Humidity 95    
Minimum Humidity 75    
Precipitation  
Precipitation 0.00 in - - ()
Sea Level Pressure  
Sea Level Pressure 30.22 in    
Wind  
Wind Speed 3 mph (NE)    
Max Wind Speed 13 mph    
Max Gust Speed 20 mph    
Visibility 7 miles    
Events Fog , Rain , Snow    
Averages and records for this station are not official NWS values.
T = Trace of Precipitation, MM = Missing Value Source: NWS Daily Summary

Daily Weather History Graph

Daily Weather History Graph

Search for Another Location

Airport or City:

Trip Planner

Search our weather history database for the weather conditions in past years. The results will help you decide how hot, cold, wet, or windy it might be!

Date:

Astronomy

Feb. 04, 2014 Rise Set
Actual Time 7:32 AM EST 5:53 PM EST
Civil Twilight 7:04 AM EST 6:21 PM EST
Nautical Twilight 6:33 AM EST 6:53 PM EST
Astronomical Twilight 6:01 AM EST 7:24 PM EST
Moon 10:12 AM EST (2/4) 11:43 PM EST (2/4)
Length of Visible Light 11h 16m
Length of Day
10h 20m
Waxing Crescent, 29% of the Moon is Illuminated
Feb 4
Waxing Crescent
Feb 6
First Quarter
Feb 14
Full
Feb 22
Last Quarter
Mar 1
New

Hourly Weather History & Observations

Time (EST) Temp. Windchill Dew Point Humidity Pressure Visibility Wind Dir Wind Speed Gust Speed Precip Events Conditions
12:15 AM 11.5 °F - 9.1 °F 90% 30.34 in 0.5 mi Calm Calm - N/A Fog Light Freezing Fog
12:35 AM 11.7 °F - 9.3 °F 90% 30.34 in 0.2 mi Calm Calm - N/A Fog Light Freezing Fog
12:55 AM 10.8 °F - 8.2 °F 90% 30.34 in 0.8 mi Calm Calm - N/A   Overcast
1:15 AM 10.8 °F - 8.2 °F 90% 30.34 in 0.2 mi Calm Calm - N/A Fog Light Freezing Fog
1:35 AM 11.1 °F - 8.6 °F 90% 30.33 in 0.2 mi Calm Calm - N/A Fog Light Freezing Fog
1:55 AM 10.9 °F - 8.4 °F 90% 30.33 in 0.2 mi Calm Calm - N/A Fog Light Freezing Fog
2:15 AM 12.2 °F - 9.9 °F 90% 30.33 in 1.0 mi Calm Calm - N/A   Overcast
2:35 AM 12.6 °F - 10.4 °F 91% 30.33 in 0.5 mi Calm Calm - N/A Fog Light Freezing Fog
2:55 AM 12.2 °F - 9.5 °F 89% 30.32 in 4.0 mi Calm Calm - N/A   Clear
3:15 AM 13.1 °F - 10.8 °F 90% 30.33 in 5.0 mi Calm Calm - N/A   Clear
3:35 AM 13.1 °F - 10.8 °F 90% 30.33 in 5.0 mi Calm Calm - N/A   Clear
3:55 AM 13.1 °F - 11.1 °F 92% 30.34 in 7.0 mi Calm Calm - N/A   Clear
4:15 AM 11.8 °F - 9.3 °F 90% 30.34 in 7.0 mi Calm Calm - N/A   Clear
4:35 AM 12.2 °F - 9.9 °F 90% 30.33 in 7.0 mi Calm Calm - N/A   Clear
4:55 AM 12.7 °F - 10.6 °F 91% 30.33 in 7.0 mi Calm Calm - N/A   Clear
5:15 AM 12.7 °F - 10.4 °F 90% 30.34 in 7.0 mi Calm Calm - N/A   Clear
5:35 AM 13.1 °F - 11.1 °F 92% 30.34 in 7.0 mi Calm Calm - N/A   Clear
5:55 AM 13.8 °F - 11.7 °F 91% 30.34 in 7.0 mi Calm Calm - N/A   Clear
6:15 AM 14.0 °F - 11.8 °F 91% 30.36 in 7.0 mi Calm Calm - N/A   Clear
6:35 AM 14.7 °F - 12.7 °F 92% 30.34 in 7.0 mi Calm Calm - N/A   Clear
6:55 AM 14.5 °F - 12.4 °F 91% 30.35 in 7.0 mi Calm Calm - N/A   Clear
7:15 AM 14.5 °F - 12.6 °F 92% 30.34 in 7.0 mi Calm Calm - N/A   Clear
7:35 AM 15.4 °F - 13.3 °F 91% 30.34 in 7.0 mi Calm Calm - N/A   Clear
7:55 AM 15.1 °F - 13.1 °F 92% 30.34 in 7.0 mi Calm Calm - N/A   Clear
8:15 AM 15.8 °F - 13.8 °F 92% 30.34 in 7.0 mi Calm Calm - N/A   Clear
8:35 AM 16.7 °F - 14.9 °F 93% 30.35 in 7.0 mi Calm Calm - N/A   Scattered Clouds
8:55 AM 17.2 °F - 15.3 °F 92% 30.36 in 7.0 mi Calm Calm - N/A   Overcast
9:15 AM 18.1 °F - 16.3 °F 93% 30.35 in 7.0 mi Calm Calm - N/A   Scattered Clouds
9:35 AM 19.9 °F 14.9 °F 18.3 °F 93% 30.36 in 7.0 mi NNE 3.5 mph - N/A   Scattered Clouds
9:55 AM 21.2 °F - 19.8 °F 94% 30.36 in 10.0 mi Calm Calm - N/A   Mostly Cloudy
10:15 AM 22.1 °F 15.9 °F 20.8 °F 95% 30.35 in 10.0 mi ENE 4.6 mph - N/A   Overcast
10:35 AM 22.5 °F 15.1 °F 21.0 °F 94% 30.34 in 10.0 mi East 5.8 mph - N/A   Overcast
10:55 AM 22.8 °F 15.5 °F 21.2 °F 93% 30.33 in 10.0 mi NE 5.8 mph - N/A   Overcast
11:15 AM 23.9 °F 15.8 °F 22.6 °F 95% 30.32 in 10.0 mi NE 6.9 mph - N/A   Overcast
11:35 AM 24.6 °F 17.7 °F 23.4 °F 95% 30.31 in 10.0 mi NNE 5.8 mph - N/A   Overcast
11:55 AM 25.5 °F 18.7 °F 23.9 °F 94% 30.29 in 10.0 mi NE 5.8 mph - N/A   Overcast
12:15 PM 26.8 °F 17.7 °F 23.5 °F 88% 30.27 in 10.0 mi ENE 9.2 mph - N/A   Overcast
12:35 PM 28.0 °F 20.0 °F 22.8 °F 81% 30.24 in 10.0 mi NE 8.1 mph - N/A   Overcast
12:55 PM 28.9 °F 21.1 °F 22.6 °F 77% 30.23 in 10.0 mi ENE 8.1 mph - N/A   Overcast
1:15 PM 29.3 °F 20.8 °F 23.2 °F 78% 30.21 in 10.0 mi ENE 9.2 mph - N/A   Overcast
1:35 PM 29.8 °F 21.5 °F 23.4 °F 77% 30.20 in 10.0 mi ENE 9.2 mph - N/A   Overcast
1:55 PM 29.8 °F 22.2 °F 23.7 °F 78% 30.19 in 10.0 mi ENE 8.1 mph - N/A   Overcast
2:15 PM 30.2 °F 24.3 °F 24.1 °F 78% 30.19 in 10.0 mi NE 5.8 mph - N/A   Overcast
2:35 PM 30.2 °F 22.6 °F 24.3 °F 79% 30.19 in 10.0 mi NE 8.1 mph - N/A   Overcast
2:55 PM 30.2 °F 24.3 °F 24.4 °F 79% 30.19 in 10.0 mi NNE 5.8 mph - N/A   Overcast
3:15 PM 30.6 °F 23.1 °F 24.6 °F 79% 30.20 in 10.0 mi NNE 8.1 mph - N/A   Overcast
3:35 PM 30.7 °F 24.1 °F 24.8 °F 79% 30.19 in 10.0 mi NE 6.9 mph - N/A   Overcast
3:55 PM 30.9 °F 21.7 °F 25.2 °F 79% 30.15 in 10.0 mi NE 11.5 mph - N/A   Overcast
4:15 PM 30.7 °F 21.4 °F 25.3 °F 80% 30.14 in 10.0 mi NE 11.5 mph - N/A   Overcast
4:35 PM 30.9 °F 24.3 °F 25.7 °F 81% 30.16 in 10.0 mi NE 6.9 mph - N/A   Overcast
4:55 PM 30.9 °F 23.5 °F 25.3 °F 80% 30.15 in 10.0 mi NE 8.1 mph - N/A   Overcast
5:15 PM 30.7 °F 22.0 °F 24.8 °F 79% 30.13 in 10.0 mi NE 10.4 mph - N/A   Overcast
5:35 PM 30.6 °F 23.8 °F 24.8 °F 79% 30.13 in 10.0 mi NNE 6.9 mph - N/A   Overcast
5:55 PM 30.6 °F 23.8 °F 24.4 °F 78% 30.13 in 10.0 mi NNE 6.9 mph - N/A   Overcast
6:15 PM 30.6 °F 25.8 °F 23.9 °F 76% 30.16 in 10.0 mi NNE 4.6 mph - N/A   Overcast
6:35 PM 30.6 °F 23.1 °F 23.7 °F 76% 30.14 in 10.0 mi NNE 8.1 mph - N/A   Overcast
6:55 PM 30.2 °F 23.4 °F 23.5 °F 76% 30.14 in 10.0 mi NNE 6.9 mph - N/A   Overcast
7:15 PM 30.2 °F 23.4 °F 23.0 °F 75% 30.14 in 10.0 mi NNE 6.9 mph - N/A   Overcast
7:35 PM 30.2 °F 21.3 °F 23.0 °F 75% 30.09 in 10.0 mi NE 10.4 mph - N/A   Overcast
7:55 PM 29.7 °F 19.6 °F 23.7 °F 79% 30.04 in 7.0 mi NE 12.7 mph - N/A Snow Light Snow
8:15 PM 29.3 °F 20.2 °F 23.7 °F 80% 30.04 in 10.0 mi NE 10.4 mph - N/A   Overcast
8:35 PM 29.1 °F 18.9 °F 24.1 °F 81% 30.00 in 5.0 mi NE 12.7 mph 19.6 mph N/A Snow Light Snow
8:55 PM 29.3 °F 20.2 °F 25.0 °F 84% 30.02 in 10.0 mi NNE 10.4 mph - N/A   Overcast
9:15 PM 29.5 °F 19.3 °F 25.9 °F 86% 30.00 in 5.0 mi NNE 12.7 mph - N/A   Overcast
9:35 PM 29.3 °F 20.2 °F 26.4 °F 89% 30.01 in 5.0 mi NE 10.4 mph - N/A   Overcast
9:55 PM 29.7 °F 21.3 °F 27.1 °F 90% 30.00 in 3.0 mi NNE 9.2 mph - N/A   Overcast
10:15 PM 29.8 °F 21.5 °F 27.5 °F 91% 30.00 in 4.0 mi NE 9.2 mph - N/A   Overcast
10:35 PM 30.2 °F 21.3 °F 28.2 °F 92% 29.97 in 4.0 mi NE 10.4 mph - N/A   Overcast
10:55 PM 30.2 °F 21.3 °F 28.4 °F 93% 29.95 in 4.0 mi NE 10.4 mph - N/A   Overcast
11:15 PM 30.6 °F 23.1 °F 28.9 °F 94% 29.94 in 4.0 mi NE 8.1 mph - N/A Rain Light Freezing Rain
11:35 PM 30.7 °F 23.3 °F 29.1 °F 94% 29.93 in 4.0 mi NE 8.1 mph - N/A Rain Light Freezing Rain
11:55 PM 31.1 °F 23.1 °F 29.3 °F 93% 29.92 in 4.0 mi NE 9.2 mph - N/A   Overcast